Temperature
10 10 10 10 10 10 11 11 10 10 10 10 10 10 10 10 11 11 11 11 11 11 11 11 11 11 11 11 11 11 11 11 11 11 11 11 11 11 11 11 11 11 11
10 10 10 10 10 10 10 10 10 10 10 10 10 10 10 10 10 10 10 10 10 10 10 10 10 10 10 10 10 10 10 10 11 11 11 11 11 11 11 11 11 11 11
10 9 9 9 9 10 10 9 9 9 9 10 10 10 10 10 10 10 10 10 10 10 10 10 10 10 10 10 10 10 10 10 10 10 10 10 10 10 10 10 10 10 10
9 9 9 9 9 9 9 9 9 9 9 9 9 9 9 9 9 10 10 10 10 10 10 10 10 10 10 9 9 9 9 9 10 10 10 10 10 10 10 10 10 10 10
9 9 9 8 9 9 8 8 8 8 8 9 9 9 9 9 9 9 9 9 9 9 9 9 9 9 9 9 9 9 9 9 9 9 9 9 9 9 9 9 9 9 9
8 8 8 8 8 8 8 8 8 8 8 8 8 8 8 8 8 8 8 8 8 9 9 9 9 8 8 9 9 9 9 8 8 8 9 9 9 9 9 9 9 9 9
8 8 8 8 8 8 8 7 7 7 7 7 7 7 8 8 8 8 8 8 8 8 8 8 8 8 8 8 8 8 8 8 8 8 8 8 8 8 8 8 8 8 8
7 7 7 7 7 7 7 7 7 7 7 6 6 6 6 7 7 7 7 7 7 7 7 7 7 7 7 7 7 7 7 7 7 8 7 8 8 8 8 8 8 8 8
6 6 6 6 6 6 6 6 6 6 6 6 5 5 5 5 6 6 7 7 7 7 7 7 7 7 6 6 7 7 7 7 7 7 7 7 7 7 7 7 7 7 8
6 6 6 6 6 6 6 6 6 6 5 5 5 5 5 5 5 5 5 6 6 6 6 6 6 6 6 6 6 6 6 6 6 6 6 6 6 7 7 7 7 7 7
5 5 5 5 5 5 5 5 5 5 5 5 4 4 4 4 4 4 4 5 5 5 5 6 6 6 5 5 5 6 6 6 6 6 6 6 6 6 6 6 6 7 7
4 4 5 5 5 5 5 5 4 4 4 4 4 4 4 4 4 4 4 4 4 4 5 5 5 5 5 5 5 5 5 5 5 5 5 5 5 5 6 6 6 6 6
4 4 4 4 4 4 4 4 4 4 3 3 3 3 3 3 3 3 3 3 3 4 4 4 5 5 5 4 4 4 5 5 5 5 4 4 5 5 5 5 5 5 6
3 3 3 4 4 4 3 3 3 3 3 3 3 3 3 3 3 3 3 3 3 3 3 4 4 4 4 4 4 4 4 4 4 4 4 4 4 4 4 4 5 5 5
3 3 3 3 3 3 3 3 3 3 3 3 3 3 3 3 2 3 2 2 2 2 2 3 3 3 3 3 3 3 3 3 3 4 4 4 4 4 4 4 4 5 5
2 2 2 2 2 2 2 2 2 2 2 2 2 2 2 2 2 2 2 2 2 2 2 2 2 2 3 3 3 3 3 3 3 3 3 3 4 4 4 4 4 4 4
2 2 2 2 2 2 2 2 2 2 2 2 2 2 2 2 2 2 2 2 2 2 1 2 2 2 2 2 2 2 2 2 2 2 3 3 3 3 3 4 4 4 4
1 1 1 1 1 1 1 1 1 1 1 1 1 1 1 1 1 1 1 1 1 1 1 1 1 1 1 1 2 2 2 2 2 2 2 2 2 3 3 3 3 3 4
1 1 1 1 1 1 1 1 1 1 1 1 1 1 1 1 0 0 0 1 1 1 1 1 1 1 1 1 1 1 1 1 1 1 1 2 2 2 2 2 3 3 3
0 0 0 0 0 0 0 0 0 0 0 0 0 0 0 0 -0 0 0 0 0 0 0 0 0 0 0 0 0 1 1 1 1 1 1 1 1 2 2 2 2 2 3
-0 -0 -0 -0 -0 -0 -0 -0 -0 -0 -0 0 0 -0 -0 -0 -0 -0 -0 -0 -0 -0 -0 -0 -0 -0 -0 0 0 0 0 0 1 1 1 1 1 1 1 2 2 2 2
-1 -1 -1 -1 -1 -1 -1 -1 -1 -0 -1 -0 -0 -0 -1 -1 -1 -1 -1 -1 -0 -1 -1 -1 -1 -1 -0 -0 -0 -0 -0 -0 -0 0 0 1 1 1 1 1 1 1 2
-1 -1 -2 -1 -1 -1 -1 -1 -1 -1 -1 -1 -1 -1 -1 -1 -1 -1 -1 -1 -1 -1 -1 -1 -1 -1 -1 -1 -1 -1 -1 -1 -1 -0 -0 0 0 1 1 1 1 1 1
-2 -2 -2 -2 -2 -2 -2 -2 -2 -2 -1 -1 -1 -1 -1 -2 -2 -2 -2 -1 -1 -1 -1 -1 -1 -1 -1 -1 -1 -1 -1 -1 -1 -1 -1 -1 -0 0 0 1 1 1 1
-3 -3 -2 -2 -2 -2 -2 -2 -2 -2 -2 -2 -2 -2 -2 -2 -2 -2 -2 -2 -2 -2 -2 -2 -2 -2 -2 -2 -1 -1 -1 -1 -1 -1 -1 -1 -1 -1 -0 -0 0 1 1
-3 -3 -3 -3 -3 -3 -3 -3 -3 -3 -3 -3 -3 -2 -2 -2 -2 -2 -2 -2 -2 -2 -2 -2 -2 -2 -2 -2 -2 -2 -2 -2 -2 -2 -1 -1 -1 -1 -1 -1 -0 0 0
Wind_Speed
1 1 1 1 2 1 1 2 2 1 2 2 3 3 3 3 4 3 4 6 7 8 8 9 9 10 10 10 10 10 9 9 9 10 9 9 9 9 9 9 9 9 9
1 1 2 1 1 2 2 2 2 2 2 2 3 3 3 4 4 4 5 6 8 9 9 10 10 11 11 11 11 10 10 10 10 10 10 10 10 10 10 10 10 10 10
1 1 1 1 1 2 3 2 2 2 2 2 3 4 4 4 4 4 5 5 6 8 9 10 11 11 12 12 12 11 11 11 10 10 11 12 11 11 11 11 11 11 11
1 1 1 1 1 2 2 2 2 1 2 2 3 3 4 4 5 5 5 6 6 6 7 9 10 11 12 12 12 12 12 11 10 10 10 11 12 12 12 12 12 12 12
1 1 1 1 1 1 2 2 2 1 2 2 3 4 4 4 5 5 5 5 5 5 5 7 10 11 12 12 12 12 12 11 10 10 11 11 12 13 13 13 13 13 13
1 1 1 1 1 1 1 1 2 2 2 2 4 5 5 5 5 4 5 4 4 5 5 6 7 8 11 12 12 12 12 11 11 11 11 11 12 13 14 14 14 14 14
1 1 1 1 1 1 2 2 2 2 2 2 3 4 5 5 5 4 4 4 4 4 5 5 6 6 7 9 10 12 12 12 11 11 11 12 13 13 14 15 15 15 15
2 2 1 1 1 1 2 2 1 1 2 1 1 2 3 3 3 4 3 3 4 3 4 5 6 6 5 5 7 10 12 12 12 12 12 12 13 14 14 14 15 15 15
2 2 2 2 2 2 2 2 2 2 2 2 2 1 1 3 3 3 4 3 3 3 3 4 5 5 5 5 6 7 9 10 11 12 13 13 14 14 15 15 14 14 15
2 2 2 3 2 2 2 3 2 2 2 3 3 3 3 2 2 3 3 2 3 3 3 4 4 5 5 5 6 7 9 10 12 13 13 14 14 15 15 15 14 14 13
2 2 3 3 3 2 2 2 3 3 3 3 3 3 4 4 4 4 5 4 4 3 3 3 3 4 5 4 5 7 9 10 12 12 13 14 15 15 15 15 15 15 13
2 3 3 3 3 2 3 3 3 4 3 3 3 3 3 3 3 3 5 5 5 4 4 3 3 3 4 4 6 8 9 11 12 13 13 14 15 15 15 16 16 15 14
2 3 3 3 3 3 3 3 3 3 3 3 3 3 3 4 3 4 5 5 6 5 4 3 3 3 4 4 5 9 10 11 12 13 13 14 14 14 15 16 16 16 16
3 3 3 3 3 3 3 3 3 3 3 3 4 4 3 4 3 4 4 4 5 5 4 5 3 3 3 4 6 9 8 10 11 12 13 13 14 14 15 15 15 15 15
3 3 3 3 3 3 3 3 3 3 3 3 4 4 4 3 4 4 4 4 4 6 6 4 3 3 4 4 6 7 7 10 12 12 12 13 13 14 14 14 15 15 15
3 3 4 3 3 3 3 3 3 3 3 3 3 4 4 4 4 3 4 4 4 5 6 4 4 4 4 5 8 7 7 10 11 12 12 13 13 14 14 14 14 15 14
3 3 4 4 3 3 3 3 3 3 3 3 4 4 4 4 4 3 3 4 4 4 7 6 4 4 5 6 5 6 7 6 7 11 12 13 13 14 14 12 12 12 12
3 3 3 3 4 3 3 3 4 3 3 4 4 4 4 4 4 4 4 4 4 4 5 7 6 4 6 5 5 5 5 6 6 10 11 12 12 12 11 10 11 11 11
3 3 3 3 4 4 3 3 3 4 4 4 4 4 4 4 4 4 4 4 4 4 4 5 6 4 5 4 5 5 5 4 6 8 9 10 11 11 10 10 10 11 10
3 3 3 3 4 4 4 4 4 4 4 4 4 4 4 4 4 4 4 4 4 4 3 4 5 4 4 4 4 4 5 4 5 5 6 8 10 10 10 10 9 9 9
3 3 3 4 3 3 3 4 4 4 3 3 3 4 4 5 5 5 5 4 3 3 3 4 4 4 4 4 4 4 5 5 5 4 4 5 5 5 6 8 8 8 8
3 3 3 3 3 4 5 6 5 4 3 3 4 3 4 4 5 6 7 6 5 5 4 4 4 5 5 5 4 4 4 5 4 2 3 5 4 4 4 4 6 7 6
2 3 3 3 3 4 6 7 7 4 3 3 3 3 4 4 5 4 5 6 6 7 7 6 5 6 6 5 4 5 4 5 5 4 4 5 3 4 4 5 7 6 5
2 3 3 3 3 4 7 7 7 4 3 3 4 4 4 4 4 4 3 4 4 4 5 4 4 5 5 5 4 5 5 4 4 3 2 3 4 4 5 4 6 5 5
2 3 3 3 3 4 7 7 6 3 3 3 4 4 3 4 5 5 4 3 3 3 4 5 5 5 7 7 5 3 3 3 4 4 2 2 3 4 4 3 4 5 5
3 3 4 3 4 4 6 7 6 2 3 3 3 3 4 5 5 5 3 3 3 4 3 4 4 5 4 5 5 3 3 3 3 3 2 2 2 3 3 2 3 4 5
Wind_Direction
293 310 309 303 283 278 229 262 274 269 276 274 278 277 261 254 245 232 233 229 233 242 252 262 269 272 272 272 271 271 273 271 268 266 264 265 267 268 261 259 262 266 266
322 302 303 302 308 325 289 263 259 262 268 274 280 282 276 267 254 237 233 235 237 242 251 259 266 271 273 273 272 271 269 269 269 265 264 265 266 269 264 261 260 263 266
348 310 293 282 304 318 305 292 280 283 276 286 286 284 280 272 269 249 242 236 238 241 249 258 264 270 272 274 273 271 270 269 267 267 268 265 265 267 265 263 260 261 262
335 320 288 275 305 312 295 277 258 277 286 291 292 287 285 278 272 258 248 238 233 239 244 254 264 269 275 277 275 273 272 268 268 269 273 274 270 268 268 263 263 261 262
301 310 277 267 274 275 281 284 294 287 290 295 289 282 276 273 271 266 253 243 232 227 229 248 258 264 271 276 276 275 273 267 269 271 272 276 278 272 271 265 265 264 262
290 315 273 259 269 244 259 278 287 291 281 283 293 289 281 272 269 258 254 249 235 236 237 241 245 256 261 268 274 276 273 269 270 271 273 275 278 280 274 268 263 265 264
304 304 266 234 247 236 252 264 283 281 285 302 306 301 289 265 254 254 254 248 244 243 240 241 241 245 252 262 269 275 275 271 271 273 273 275 277 279 281 274 264 264 266
279 279 256 225 226 234 250 258 271 277 287 301 287 307 309 305 284 272 257 243 243 248 252 258 250 245 240 240 261 270 275 273 276 276 276 277 278 279 281 284 269 264 264
255 257 256 238 227 219 228 235 229 244 267 280 266 246 269 269 304 278 264 260 256 254 254 259 255 249 250 244 245 261 272 279 283 283 283 282 281 281 281 283 283 271 264
244 245 258 245 229 221 226 240 247 244 238 261 274 262 260 268 277 299 297 296 294 290 286 286 273 267 256 246 247 259 266 276 280 284 286 285 285 283 282 284 283 278 271
256 245 252 242 228 222 219 228 246 244 240 241 255 273 276 278 259 264 283 293 301 293 293 295 281 278 276 260 255 261 268 272 276 281 284 285 286 284 284 284 284 279 274
266 255 256 246 237 228 224 228 237 239 246 245 250 257 264 266 270 269 275 285 290 294 297 288 283 278 280 281 278 281 282 278 274 276 280 282 284 285 285 287 284 282 278
280 263 267 248 240 242 243 238 236 241 239 243 245 253 258 266 270 272 277 284 289 291 285 281 270 269 275 279 280 286 284 285 280 275 276 279 282 284 284 286 285 282 282
276 275 269 269 264 251 253 240 236 240 242 243 256 259 259 261 264 265 265 275 291 289 278 273 282 254 271 271 279 289 286 288 284 279 276 277 280 281 282 283 286 282 282
290 295 288 278 268 253 245 241 242 240 238 244 250 257 262 263 261 266 266 258 260 283 287 273 278 273 270 273 283 287 284 285 289 284 279 278 278 278 279 281 282 281 278
297 300 300 287 274 256 251 251 255 250 243 251 252 257 264 268 265 259 264 268 260 261 276 279 285 296 294 292 291 292 291 297 296 294 285 280 279 276 276 279 279 278 275
296 292 291 286 278 271 259 255 257 254 253 260 261 260 264 267 268 270 269 270 268 263 270 284 284 288 293 290 292 291 287 284 285 293 292 284 282 278 275 273 276 275 276
297 290 287 287 283 281 275 262 262 264 258 261 264 264 266 271 268 266 265 266 269 268 266 279 289 289 284 284 287 287 293 293 285 293 295 296 293 288 280 275 277 273 276
302 299 297 292 289 287 282 274 265 269 264 262 260 260 266 266 268 267 268 266 270 276 268 272 284 288 292 297 299 296 292 295 294 297 297 297 297 296 288 282 281 277 278
298 298 295 288 287 287 283 279 281 278 274 270 267 262 261 258 262 264 268 265 265 269 271 274 280 289 290 294 295 294 298 297 296 303 302 302 302 300 294 289 288 288 288
299 293 293 290 289 286 285 290 286 285 279 282 283 275 275 279 275 272 274 271 263 264 272 274 279 291 292 302 296 292 294 300 293 300 306 308 306 304 301 294 296 299 297
311 311 302 297 300 299 306 309 307 291 286 284 286 282 280 280 285 288 288 282 270 260 266 271 279 283 285 287 293 297 300 306 300 304 312 307 311 304 307 313 312 308 310
320 321 317 315 309 308 313 315 318 312 296 288 282 282 289 291 290 272 290 296 283 276 268 264 270 276 283 290 294 296 295 295 292 296 310 305 312 310 317 327 331 321 320
323 318 318 319 318 317 323 321 325 322 305 297 289 281 279 283 290 291 291 291 282 278 275 272 272 281 289 293 281 278 283 295 304 304 306 294 306 311 316 324 326 328 333
324 317 317 323 322 319 325 328 330 315 305 302 295 288 282 277 294 300 291 287 291 295 309 309 306 311 313 312 315 309 306 305 308 313 324 306 304 311 311 310 325 340 343
315 319 319 319 314 310 322 328 327 306 304 309 306 297 291 290 295 292 274 267 279 290 304 315 320 324 321 320 324 312 291 292 305 305 317 329 314 331 321 321 346 358 360
Height
1496 1496 1496 1497 1497 1498 1498 1498 1499 1499 1500 1500 1501 1501 1502 1502 1502 1502 1502 1503 1503 1504 1504 1504 1504 1504 1505 1504 1504 1504 1504 1504 1504 1504 1504 1505 1505 1504 1504 1504 1504 1504 1503
1493 1493 1494 1494 1494 1495 1495 1496 1496 1496 1497 1497 1497 1498 1498 1498 1499 1499 1499 1499 1500 1500 1500 1500 1500 1501 1501 1500 1500 1500 1500 1500 1500 1500 1500 1500 1500 1500 1500 1500 1500 1499 1499
1490 1491 1491 1491 1491 1492 1492 1492 1493 1493 1493 1493 1494 1494 1495 1495 1495 1495 1495 1495 1495 1496 1496 1496 1496 1496 1496 1496 1496 1496 1496 1495 1495 1495 1495 1496 1496 1496 1495 1495 1495 1495 1495
1487 1487 1487 1488 1488 1489 1489 1489 1489 1489 1490 1489 1490 1490 1490 1491 1491 1491 1491 1491 1491 1491 1491 1491 1492 1491 1492 1491 1491 1491 1491 1491 1490 1490 1491 1491 1491 1490 1490 1490 1490 1490 1490
1483 1484 1484 1485 1485 1485 1485 1486 1486 1485 1485 1485 1486 1486 1486 1486 1486 1486 1486 1486 1486 1487 1487 1487 1487 1486 1486 1486 1486 1486 1486 1486 1485 1485 1485 1485 1485 1485 1485 1485 1485 1485 1485
1480 1480 1481 1481 1481 1482 1482 1482 1482 1482 1482 1482 1482 1481 1481 1481 1481 1481 1482 1482 1482 1482 1482 1482 1482 1482 1481 1481 1481 1481 1481 1480 1480 1480 1480 1480 1480 1480 1479 1479 1479 1479 1479
1476 1477 1477 1478 1478 1478 1478 1479 1479 1479 1479 1478 1478 1476 1476 1477 1476 1477 1477 1477 1478 1478 1478 1477 1477 1477 1476 1476 1476 1476 1476 1475 1474 1474 1474 1474 1474 1474 1473 1473 1473 1473 1473
1473 1473 1473 1474 1474 1474 1475 1475 1475 1475 1475 1475 1475 1473 1472 1472 1472 1473 1473 1473 1473 1473 1473 1472 1472 1472 1471 1471 1470 1470 1470 1470 1469 1468 1468 1468 1468 1468 1468 1467 1467 1467 1467
1469 1470 1470 1470 1470 1470 1471 1471 1471 1471 1471 1472 1473 1473 1472 1469 1468 1468 1468 1468 1469 1468 1468 1468 1467 1467 1466 1466 1465 1465 1465 1464 1464 1463 1462 1462 1462 1462 1462 1461 1461 1461 1461
1466 1466 1466 1466 1466 1466 1467 1467 1467 1468 1468 1468 1468 1469 1470 1468 1468 1463 1463 1464 1464 1464 1463 1463 1462 1461 1461 1461 1460 1460 1459 1459 1459 1458 1457 1457 1456 1456 1455 1455 1455 1454 1454
1462 1462 1462 1462 1462 1462 1463 1463 1463 1464 1464 1464 1464 1465 1465 1465 1464 1463 1459 1458 1459 1459 1458 1457 1457 1456 1456 1455 1454 1454 1454 1454 1453 1452 1451 1451 1450 1449 1449 1449 1448 1448 1448
1458 1459 1458 1458 1458 1458 1459 1459 1459 1459 1459 1460 1460 1460 1461 1461 1460 1459 1457 1454 1453 1453 1453 1452 1452 1451 1450 1450 1449 1449 1448 1447 1446 1445 1445 1444 1443 1443 1442 1442 1442 1441 1442
1455 1455 1454 1454 1454 1454 1455 1455 1455 1455 1455 1455 1455 1456 1456 1456 1456 1456 1454 1451 1449 1447 1447 1447 1447 1446 1445 1444 1443 1443 1441 1441 1439 1438 1438 1437 1437 1436 1436 1436 1435 1435 1435
1451 1451 1451 1451 1451 1451 1450 1450 1451 1451 1451 1451 1451 1451 1451 1451 1451 1451 1451 1449 1445 1443 1442 1442 1442 1441 1440 1439 1438 1437 1436 1435 1434 1432 1432 1431 1430 1430 1429 1429 1428 1428 1428
1448 1448 1448 1447 1447 1447 1446 1446 1446 1447 1447 1446 1446 1446 1446 1446 1446 1446 1446 1445 1444 1440 1437 1437 1437 1436 1436 1435 1434 1433 1431 1430 1428 1427 1426 1425 1424 1423 1423 1422 1421 1421 1422
1445 1444 1444 1444 1443 1443 1442 1442 1443 1442 1442 1442 1442 1441 1441 1441 1441 1441 1441 1440 1439 1438 1434 1432 1432 1432 1432 1430 1429 1428 1426 1425 1423 1421 1420 1419 1418 1417 1416 1415 1415 1415 1415
1441 1441 1440 1440 1439 1439 1438 1439 1438 1438 1438 1438 1437 1437 1436 1436 1436 1436 1436 1435 1434 1433 1430 1428 1428 1428 1427 1425 1423 1422 1421 1419 1417 1416 1414 1413 1412 1411 1409 1408 1408 1409 1409
1437 1437 1436 1436 1436 1435 1435 1435 1435 1434 1434 1433 1433 1432 1432 1432 1431 1431 1430 1430 1429 1429 1427 1424 1423 1423 1422 1420 1419 1417 1416 1414 1412 1411 1409 1408 1407 1405 1403 1402 1403 1403 1403
1434 1433 1433 1432 1432 1431 1431 1431 1431 1430 1430 1429 1429 1428 1428 1428 1427 1426 1426 1425 1425 1424 1423 1421 1419 1418 1417 1416 1414 1413 1411 1410 1408 1406 1405 1404 1402 1400 1399 1398 1398 1398 1398
1430 1430 1429 1429 1428 1428 1428 1428 1427 1427 1426 1425 1425 1425 1424 1424 1423 1422 1422 1421 1420 1420 1419 1418 1416 1414 1413 1412 1411 1408 1406 1405 1404 1402 1401 1400 1398 1396 1395 1395 1395 1394 1393
1427 1427 1426 1425 1425 1424 1424 1424 1423 1423 1422 1421 1421 1421 1420 1420 1419 1419 1418 1417 1417 1416 1415 1414 1413 1411 1410 1408 1407 1405 1403 1401 1400 1399 1397 1396 1394 1393 1392 1391 1390 1389 1388
1424 1424 1423 1422 1421 1421 1421 1421 1420 1419 1418 1418 1417 1416 1416 1416 1415 1415 1414 1414 1413 1413 1411 1411 1409 1408 1406 1406 1404 1403 1401 1398 1396 1396 1394 1392 1391 1390 1389 1387 1386 1385 1384
1422 1421 1420 1419 1418 1417 1417 1417 1417 1416 1415 1414 1413 1413 1412 1412 1411 1411 1410 1409 1409 1409 1409 1408 1406 1404 1404 1403 1402 1400 1398 1396 1394 1393 1392 1389 1389 1387 1386 1384 1383 1382 1381
1418 1418 1417 1416 1415 1414 1414 1414 1413 1412 1411 1411 1410 1409 1408 1408 1408 1408 1407 1405 1405 1404 1404 1404 1403 1401 1401 1400 1399 1398 1396 1394 1392 1391 1390 1388 1386 1384 1383 1381 1380 1379 1379
1415 1415 1414 1413 1412 1411 1411 1411 1410 1409 1408 1407 1406 1406 1405 1405 1405 1405 1404 1402 1401 1401 1401 1400 1399 1398 1398 1397 1397 1395 1393 1391 1389 1388 1388 1386 1384 1382 1380 1379 1378 1377 1377
1413 1412 1411 1410 1409 1409 1408 1408 1407 1406 1404 1403 1403 1402 1402 1402 1402 1401 1401 1399 1398 1397 1397 1396 1396 1395 1395 1394 1393 1392 1391 1389 1387 1386 1385 1385 1383 1382 1379 1378 1377 1375 1375